Lapse_Rate
3.5 1.6 -1.5 0.8 6.3 6.5 6.5 6.5 6.5 6.5 6.5 5.1 4.6 5.4 6.2 5.4 6.5 6.5 1.0 2.0 1.7 2.7 4.5 5.6 6.1 6.1 5.6 5.4 4.6 4.3 4.3 4.5 4.5 4.5 4.2 4.1 3.9 4.1 4.2 4.1 4.1 4.1 4.1 4.2 4.4 4.3 4.2 4.2 4.3
2.5 2.3 0.4 1.4 6.5 6.5 6.5 6.5 6.5 6.5 5.4 3.8 4.7 5.4 6.1 6.5 3.1 1.8 2.4 2.2 2.7 3.0 4.7 5.4 6.1 6.0 5.5 5.0 4.2 4.2 4.2 4.3 4.3 4.2 4.0 4.0 4.0 4.1 4.1 4.2 4.0 4.0 4.0 4.0 3.9 4.0 4.1 4.2 4.5
3.2 2.6 2.9 6.5 6.5 6.5 6.5 6.5 6.5 5.9 4.0 5.0 5.8 4.8 4.9 5.8 3.1 1.7 2.1 1.9 3.2 3.5 4.7 5.4 5.8 5.7 5.1 4.7 4.1 4.1 4.1 4.1 3.9 4.0 4.0 4.0 4.2 4.1 4.0 4.0 3.8 3.8 3.6 3.7 3.7 3.8 4.2 4.5 4.8
2.1 2.3 2.7 6.5 6.5 6.5 6.5 6.5 6.2 6.3 4.9 5.2 5.4 6.5 4.9 4.5 3.4 2.0 2.9 2.9 3.4 4.0 4.5 5.7 6.0 5.1 4.8 4.4 4.1 4.1 3.9 3.9 3.9 4.0 4.2 4.2 4.1 4.1 3.9 3.7 3.7 3.7 3.5 3.8 3.9 4.1 4.3 4.7 5.4
1.2 2.3 6.5 6.5 6.5 6.5 6.5 5.8 4.9 6.5 6.1 5.2 5.9 6.3 5.1 3.5 3.1 2.9 3.7 3.9 4.4 4.5 4.9 5.8 6.3 4.8 4.8 4.3 4.0 3.9 4.0 3.9 4.0 4.1 4.2 4.3 4.2 4.1 3.9 3.7 3.7 3.8 3.9 4.0 4.0 4.4 4.5 5.0 5.6
3.7 3.7 6.5 6.5 6.5 6.5 6.4 4.8 5.4 5.9 5.0 4.6 5.1 5.8 5.0 3.0 3.9 4.2 4.2 5.1 4.7 4.2 5.2 6.2 5.9 4.9 4.8 4.2 3.8 3.7 3.9 4.0 4.0 4.1 4.2 4.1 4.2 4.1 4.0 3.9 3.9 4.1 4.3 4.5 4.5 4.6 4.9 5.4 5.9
5.8 6.5 6.5 6.5 6.5 6.5 6.5 4.3 6.0 6.0 5.6 5.4 5.3 6.5 5.1 4.7 5.2 5.0 5.1 4.8 4.4 4.4 5.3 5.3 5.6 4.9 4.6 4.0 3.5 3.7 3.9 3.9 3.9 4.0 4.1 4.0 4.1 4.1 4.1 4.2 4.3 4.5 4.5 4.6 4.6 4.6 4.7 5.1 5.5
3.0 6.5 6.5 6.5 6.5 6.5 6.1 5.2 5.8 5.5 5.8 4.3 6.0 6.5 6.2 6.2 5.5 4.6 4.3 4.6 4.6 5.0 5.2 4.9 3.9 4.0 3.9 3.5 3.5 3.7 3.9 3.8 3.8 3.8 3.7 3.7 3.6 3.8 3.9 4.1 4.4 4.5 4.6 4.7 5.0 5.0 5.0 5.3 5.4
5.2 6.5 6.5 6.5 6.5 6.5 5.7 6.4 6.2 5.9 5.6 4.6 5.3 7.0 7.3 6.5 5.2 4.3 4.4 4.6 4.6 4.6 4.4 3.6 2.2 1.9 2.1 2.5 3.2 3.6 3.5 3.6 3.5 2.9 2.7 2.3 1.9 2.0 2.3 3.3 3.8 4.0 4.0 4.4 4.8 4.5 4.1 3.7 4.2
5.7 6.5 6.5 6.5 6.5 6.5 6.0 6.1 5.8 5.9 5.1 5.6 4.7 5.0 6.6 5.4 5.3 5.0 4.6 4.4 4.1 4.0 4.2 3.3 1.7 1.2 1.5 2.7 1.6 1.8 2.2 2.2 1.9 1.6 1.0 0.9 1.0 1.3 1.8 2.6 2.7 3.1 3.3 3.8 3.9 3.8 3.2 3.2 2.7
6.3 6.5 6.5 6.2 5.7 5.9 6.3 5.8 5.8 6.2 6.5 5.6 5.3 4.6 5.6 5.6 5.2 5.1 4.7 4.2 4.2 3.6 3.7 2.7 1.7 1.0 0.7 0.1 -0.1 0.4 0.6 0.6 0.7 0.9 0.7 0.3 0.4 0.6 0.7 0.8 1.0 1.4 1.6 1.5 1.8 1.9 1.9 2.0 2.3
6.5 5.9 6.1 6.2 6.4 6.1 6.4 6.1 5.8 5.4 5.6 4.9 4.2 4.8 6.3 6.8 5.1 5.2 5.0 4.6 4.0 3.6 3.3 2.2 1.7 1.0 -0.3 -0.2 -0.2 -0.6 -0.7 -0.7 -0.6 0.2 0.4 -0.2 -0.9 -0.5 -0.6 -0.5 -0.2 0.2 0.5 0.2 0.6 0.6 1.0 1.5 1.8
6.5 6.5 6.2 5.8 5.6 5.7 5.6 5.9 6.0 5.7 5.0 5.0 4.3 4.7 4.6 5.8 6.0 5.3 5.0 4.9 4.1 3.7 3.1 2.8 2.2 1.2 0.2 -0.3 -0.9 -1.1 -1.6 -1.1 -0.1 0.0 0.6 0.5 -0.6 -0.6 -0.3 -0.5 -0.2 0.0 0.6 0.5 0.0 0.4 0.8 0.8 1.5
6.1 5.9 6.1 5.9 5.8 5.8 6.4 6.2 6.0 5.5 6.0 5.6 5.0 4.7 3.9 4.5 4.7 5.7 5.3 5.0 4.3 4.0 3.3 3.1 2.9 1.6 0.8 -0.4 -1.0 -1.0 -0.5 -0.1 -0.1 0.2 0.6 0.7 0.5 0.6 0.4 -0.4 -0.3 0.2 0.8 0.8 0.7 0.3 0.2 0.0 1.2
5.8 6.5 6.5 6.4 6.2 6.4 5.4 6.5 6.5 4.5 5.4 5.7 5.1 4.7 4.2 4.0 4.7 5.1 5.9 5.4 4.4 4.3 3.7 3.4 3.2 2.1 1.4 0.9 0.1 0.0 0.3 0.3 -0.5 0.3 0.9 0.9 0.7 0.3 0.9 0.0 -0.5 0.1 0.9 1.0 0.9 0.6 0.6 -0.1 1.0
6.5 6.5 6.5 6.5 6.4 6.2 6.2 6.5 6.5 5.6 5.1 6.2 5.3 4.4 4.1 3.4 3.8 4.0 4.6 5.5 4.8 4.0 4.0 4.1 4.3 3.0 1.9 1.1 0.6 1.1 1.3 0.8 0.4 0.9 1.3 1.4 1.3 1.0 0.6 0.4 -0.1 0.6 0.9 0.7 -0.1 -0.3 -0.4 -0.4 -0.0
6.5 6.5 6.5 6.5 6.3 6.5 6.5 6.5 6.6 6.2 6.5 6.3 5.6 4.5 4.1 3.7 3.1 3.4 4.1 5.6 5.4 4.2 4.0 4.1 4.1 2.8 2.6 1.8 1.5 1.2 1.6 1.5 1.1 1.5 1.6 1.7 1.7 1.3 1.2 1.1 0.8 1.3 0.8 0.3 0.8 -0.6 0.0 -0.4 0.1
6.5 6.5 6.5 6.5 6.5 6.5 6.5 6.5 6.5 6.0 6.2 6.2 5.8 4.5 3.4 3.5 3.3 2.9 3.9 3.9 5.2 4.7 3.9 4.0 3.9 3.5 2.9 2.7 1.7 1.5 1.5 1.7 1.8 1.5 2.0 2.4 2.4 1.7 1.5 1.8 1.5 1.4 0.3 0.2 0.4 0.3 -0.8 -0.8 -0.3
6.5 6.5 6.5 6.5 6.5 6.5 6.5 6.5 6.5 6.4 6.3 6.2 6.1 4.3 3.6 2.9 3.1 2.4 3.2 3.5 5.3 5.2 4.2 4.1 4.1 4.1 3.0 2.5 2.2 2.7 2.9 2.1 1.9 1.8 2.8 2.9 3.2 2.3 1.7 1.4 1.9 1.4 0.8 0.6 0.7 0.1 0.1 -1.1 -1.4
6.5 6.5 6.5 6.5 6.5 6.5 6.5 6.5 6.5 6.5 6.4 6.2 6.1 5.7 4.2 3.2 2.2 2.2 2.5 3.5 4.4 4.9 4.6 4.2 4.4 3.6 3.9 3.7 3.3 2.3 2.1 1.5 1.9 2.2 2.9 3.3 3.5 3.0 2.4 1.5 1.6 1.9 0.9 0.8 0.8 1.0 0.2 -0.7 -2.0
6.5 6.5 6.5 6.5 6.5 6.5 6.5 6.5 6.5 6.5 5.8 5.2 4.8 4.8 4.9 4.2 3.0 1.7 2.4 3.7 5.3 5.7 4.6 4.2 4.3 3.9 3.9 4.2 2.3 1.6 1.6 1.7 2.7 2.8 2.5 2.6 3.6 3.6 3.1 2.8 1.8 1.6 1.2 1.0 0.8 0.5 0.8 0.4 -0.9
6.5 6.5 6.5 6.5 6.5 6.5 6.5 6.5 6.5 6.5 6.5 6.5 5.2 3.6 4.0 4.4 3.7 2.5 2.4 3.9 5.9 3.1 3.9 3.9 3.8 3.6 3.3 3.8 3.6 2.6 4.0 3.6 2.3 1.2 1.5 2.3 3.0 3.6 3.1 3.2 2.4 1.4 1.3 1.0 1.0 0.9 0.5 0.4 0.7
6.5 6.5 6.5 6.5 6.5 6.5 6.5 6.5 6.5 6.5 6.5 6.5 6.5 4.6 3.6 3.1 3.6 2.3 2.6 3.3 3.9 3.1 1.9 3.1 2.5 2.7 2.4 3.2 4.8 3.6 2.9 1.6 1.2 2.1 2.5 1.8 1.7 3.0 3.5 2.8 2.5 1.9 1.4 1.2 1.3 1.1 0.7 0.3 0.1
6.5 6.5 6.5 6.5 6.5 6.5 6.5 6.5 6.5 6.5 6.5 6.5 6.3 6.0 4.1 3.3 2.6 2.4 2.5 2.5 3.6 1.5 1.6 2.3 2.6 2.6 1.6 2.4 5.2 4.3 2.8 2.1 2.4 2.1 1.6 1.8 1.8 2.0 2.6 2.6 2.6 2.2 1.3 1.5 0.9 0.5 0.4 -0.2 -0.0
6.5 6.5 6.5 6.5 6.5 6.5 6.5 6.5 6.5 6.5 6.5 6.5 6.5 5.9 4.8 2.7 2.6 2.9 3.3 3.6 1.4 0.7 0.3 1.6 2.2 2.8 2.8 3.4 4.2 5.0 3.6 3.1 2.7 2.3 1.8 2.1 1.0 1.3 1.4 1.7 1.5 1.1 1.4 1.7 1.2 0.8 0.0 0.1 0.3
6.5 6.5 6.5 6.5 6.5 6.5 6.5 6.5 6.5 6.5 5.9 4.7 5.0 4.7 5.8 5.5 2.2 2.1 2.3 0.5 0.4 0.2 0.3 1.4 1.9 2.8 3.4 2.7 4.6 3.9 4.0 3.1 3.0 2.8 2.3 2.0 2.3 2.0 2.1 2.0 2.0 1.7 1.2 1.3 1.1 0.0 -0.0 -0.3 0.2
6.5 6.5 6.5 6.5 6.5 6.5 6.5 6.5 6.5 6.5 6.5 6.3 6.2 5.7 6.8 6.8 4.1 3.1 0.9 0.2 0.4 0.5 0.8 1.2 2.3 2.7 3.2 4.1 4.3 4.4 3.6 3.5 3.6 2.8 2.5 2.7 2.9 3.3 2.7 2.1 1.7 1.8 1.8 1.7 1.3 0.4 0.8 0.3 0.4
6.5 6.5 6.5 6.5 6.5 6.5 6.5 6.5 6.5 6.5 6.5 6.5 6.5 6.2 6.8 6.6 6.1 4.8 3.9 1.8 1.3 1.6 0.6 1.2 1.7 2.7 3.6 4.0 4.7 4.1 4.6 3.8 3.5 3.0 3.2 2.7 1.9 2.5 2.8 1.8 1.6 1.6 1.6 1.6 0.8 0.9 0.9 1.1 0.5
6.5 6.5 6.5 6.5 6.5 6.5 6.5 6.5 6.5 6.5 6.5 6.5 6.5 5.6 6.7 6.0 6.4 5.5 4.7 2.8 2.1 1.7 1.9 3.5 4.1 3.6 3.9 4.7 5.1 4.8 4.0 3.7 3.1 2.3 2.7 2.7 2.8 2.3 1.9 1.5 1.4 1.6 1.4 0.9 0.7 1.2 1.5 1.1 1.0
6.5 6.5 6.5 6.5 6.5 6.5 6.5 6.5 6.5 6.5 6.5 6.2 5.6 5.0 5.4 5.6 5.7 5.2 5.2 5.6 4.7 4.5 5.3 4.6 4.8 5.0 4.5 4.8 4.8 4.2 3.4 3.1 2.8 2.1 2.1 2.3 2.0 1.8 1.9 1.8 1.3 1.3 1.0 1.1 1.2 1.2 0.6 0.7 0.8
Wind_Speed
15 16 2 4 3 4 4 7 2 4 2 3 2 3 8 2 6 5 1 5 15 18 23 24 26 24 22 19 19 18 17 15 14 14 13 13 13 12 12 12 12 12 12 11 10 10 9 9 9
13 3 4 2 5 4 6 4 6 7 5 6 2 3 3 2 2 6 8 10 18 17 21 22 27 25 22 21 20 18 17 16 15 14 14 13 14 13 13 12 12 11 11 11 11 10 10 10 10
7 3 3 4 4 6 5 4 8 7 9 3 3 2 1 3 1 12 3 17 18 16 20 23 27 26 23 22 21 19 18 17 15 14 14 14 13 13 13 13 12 12 11 11 11 10 10 10 10
4 4 4 3 5 6 3 4 5 9 6 4 3 6 3 3 4 6 15 17 17 14 20 25 26 25 23 22 21 20 19 18 16 15 14 14 14 13 13 13 12 11 11 10 10 10 10 10 11
4 3 2 1 4 5 5 6 8 6 4 5 4 5 3 5 5 14 18 16 18 15 19 22 26 24 23 23 22 20 19 18 17 16 15 14 14 13 13 13 12 11 11 11 11 11 11 11 12
4 3 3 1 4 6 6 7 6 6 7 12 7 2 3 1 11 13 15 18 15 15 16 20 26 23 22 22 22 21 20 19 18 17 16 15 14 13 13 13 12 12 11 12 13 13 14 14 13
5 3 2 1 3 5 2 10 5 7 7 6 7 5 1 4 9 12 12 12 13 13 13 16 19 20 21 21 21 21 20 20 19 18 16 15 15 14 13 13 13 12 13 12 12 12 13 13 15
4 3 2 3 3 4 6 8 6 6 7 11 4 3 4 6 11 12 12 12 12 11 11 11 14 15 15 18 21 20 19 19 19 18 16 14 14 14 14 14 14 14 13 12 11 12 12 13 14
2 3 2 3 3 7 5 7 3 5 5 5 6 6 13 8 11 12 11 10 11 9 12 9 8 12 13 15 18 19 19 18 17 17 16 14 12 12 13 11 12 12 11 10 11 11 12 13 15
4 3 5 3 2 5 9 5 13 5 9 5 6 14 15 16 13 16 15 13 12 12 12 11 8 8 13 13 14 16 15 16 16 15 15 12 11 11 11 10 10 10 12 12 12 11 12 12 13
1 3 2 5 7 5 5 8 4 4 4 5 6 12 14 9 14 14 13 14 11 12 11 10 9 9 8 8 12 12 14 15 15 16 14 14 9 8 8 8 9 10 10 11 11 11 11 11 10
3 6 4 5 4 6 5 5 7 7 10 9 9 8 10 8 7 11 12 12 13 13 13 12 9 8 7 9 8 11 9 12 10 14 13 13 8 5 5 7 7 9 8 9 9 9 9 10 10
3 3 6 8 11 6 7 9 9 15 10 10 9 9 10 9 7 8 10 11 13 13 13 13 12 9 7 7 7 7 7 10 13 13 14 14 9 3 5 6 7 7 8 8 7 8 8 9 10
3 7 9 7 7 6 5 8 4 14 2 7 8 11 10 9 9 8 12 15 15 15 15 14 13 9 9 6 6 5 9 11 12 13 15 14 13 9 4 5 6 6 7 7 8 7 6 6 8
5 5 7 2 4 5 7 7 8 9 5 7 8 9 10 9 10 12 8 15 17 14 16 16 14 11 10 8 7 7 9 11 9 12 16 15 16 14 8 5 4 6 7 9 9 8 8 5 5
5 3 5 4 6 4 5 10 6 14 7 14 11 8 9 11 8 8 11 13 16 15 17 15 14 13 10 8 6 7 8 9 10 12 13 15 15 16 10 4 3 6 7 7 5 2 4 4 4
5 4 7 8 5 4 2 22 7 16 17 17 8 9 9 11 9 7 11 16 12 13 16 14 14 15 11 8 6 7 9 7 9 12 12 12 14 15 12 6 5 7 6 5 3 3 3 3 3
5 6 6 9 5 6 13 24 15 13 15 17 12 9 9 11 15 8 9 11 10 13 15 15 12 13 12 7 5 4 4 4 10 9 10 12 12 14 13 7 6 7 4 3 3 3 4 3 2
6 5 10 13 11 8 9 19 21 19 19 18 14 9 10 11 13 6 9 11 11 14 13 15 14 13 11 6 5 4 5 3 3 6 11 12 11 12 12 9 5 6 4 3 3 2 3 4 2
7 8 12 10 6 8 13 26 25 20 19 17 13 12 10 11 8 8 7 10 16 15 16 15 15 14 11 9 6 4 4 3 3 5 8 12 11 11 9 8 4 4 4 4 3 2 2 2 4
4 5 5 9 7 7 8 11 7 7 8 7 8 14 10 14 14 10 8 14 17 16 17 16 17 16 12 11 7 5 5 4 3 2 3 5 10 9 11 8 8 6 3 3 2 2 3 3 3
5 1 3 7 10 6 5 6 7 7 11 5 8 9 12 11 14 9 10 13 18 16 16 14 13 15 11 11 11 13 7 7 4 4 4 4 9 8 9 10 8 7 5 4 3 2 2 2 3
8 4 6 6 10 9 2 3 8 5 10 14 14 9 9 7 11 11 13 15 18 11 15 15 15 14 14 12 10 9 6 4 4 4 7 6 5 8 8 10 8 5 5 4 4 3 4 2 2
6 5 2 1 1 3 4 4 6 4 5 10 13 12 9 8 8 8 8 12 16 10 11 12 16 16 14 13 6 12 13 8 7 6 5 4 4 3 6 8 7 7 6 4 4 4 4 4 4
2 4 4 5 2 5 0 3 9 10 7 5 12 15 14 10 6 7 10 13 10 13 12 12 14 14 15 12 11 7 10 11 9 8 6 6 4 2 5 6 6 4 8 6 6 4 5 4 3
2 2 3 4 3 5 0 5 5 5 6 8 8 8 11 14 6 7 12 10 13 14 14 14 14 13 15 16 11 8 7 6 5 6 7 4 3 4 5 6 6 7 10 8 8 3 4 4 4
1 2 3 4 3 3 3 7 9 4 9 14 15 14 18 16 6 3 6 10 11 13 16 16 13 12 14 15 12 5 9 10 7 7 6 5 5 4 6 7 5 7 8 8 6 4 4 4 4
3 3 2 1 4 5 5 5 4 7 9 12 15 12 16 12 7 5 6 6 5 6 8 12 12 14 14 15 11 10 6 11 8 6 6 6 6 6 6 7 6 5 7 7 6 4 3 5 4
2 3 4 3 2 3 4 5 5 3 5 8 10 8 10 10 8 4 4 7 6 6 8 9 11 15 15 14 12 11 10 10 7 6 4 6 6 8 7 7 7 6 6 6 6 5 4 6 5
4 6 6 4 4 4 2 9 2 2 4 5 7 7 6 6 6 7 5 7 9 9 9 9 12 13 14 14 12 11 9 9 8 9 7 7 8 6 7 6 7 6 6 5 6 5 6 6 6
Wind_Direction
330 328 70 42 75 67 242 245 260 248 248 319 282 152 197 140 166 206 149 156 137 149 155 160 154 149 149 150 145 144 141 140 135 132 126 122 119 116 110 106 102 97 93 89 89 84 76 70 62
328 343 43 83 118 152 252 225 231 248 261 326 357 338 315 189 83 129 128 163 146 147 154 156 151 147 154 152 148 146 144 141 138 134 131 127 125 119 114 109 103 99 98 94 90 86 78 71 67
335 33 93 142 156 199 231 198 228 307 306 261 282 109 322 239 128 167 169 150 145 148 151 152 148 143 153 152 150 149 145 142 139 137 135 132 125 121 117 112 107 104 100 96 91 85 79 75 73
9 8 32 118 219 269 238 336 337 338 325 15 22 289 320 344 189 188 146 146 143 145 148 153 147 143 154 154 152 150 147 144 142 140 136 132 128 123 118 114 109 107 103 100 95 88 83 79 82
31 50 68 84 265 278 300 330 310 324 277 304 323 268 254 344 119 141 152 149 147 146 147 149 139 152 157 154 153 150 149 147 144 141 137 133 128 124 120 116 112 107 104 101 94 88 83 83 86
40 84 60 251 284 293 304 346 312 340 319 316 333 286 257 144 144 155 154 156 149 144 143 147 135 156 159 154 153 152 151 149 145 142 138 135 131 126 122 117 112 107 102 99 93 86 85 86 79
100 78 193 201 269 320 351 331 25 322 315 299 322 265 333 170 159 153 151 145 144 139 140 139 141 156 158 154 151 154 154 150 145 144 141 136 133 128 123 116 110 105 103 98 89 87 86 80 74
99 87 37 254 213 261 342 351 317 345 291 316 358 324 289 215 160 148 147 147 139 139 137 129 140 149 154 152 152 155 153 147 147 142 137 130 129 130 125 118 112 107 99 91 85 83 83 78 78
96 68 219 264 359 295 315 336 319 291 297 312 335 333 302 183 155 150 146 144 144 143 133 129 130 132 139 143 153 151 145 144 141 133 130 128 130 129 126 117 107 102 95 91 85 79 76 75 76
87 124 219 229 243 255 301 302 306 334 321 300 320 335 347 159 174 166 162 160 156 152 144 145 138 140 140 146 138 136 135 137 139 140 137 135 136 132 123 107 91 90 89 87 85 81 72 73 77
84 192 208 271 287 298 273 297 269 284 271 259 303 314 334 216 177 173 170 166 163 151 148 149 142 140 134 137 135 133 135 141 146 147 141 136 132 123 115 102 92 90 87 81 78 74 71 72 77
344 246 242 275 294 315 282 284 291 234 248 253 283 287 323 300 225 180 173 163 157 161 152 148 145 143 128 137 146 146 142 149 155 159 155 143 134 131 121 113 105 99 94 88 84 80 79 73 78
234 302 309 291 292 254 258 246 254 269 251 270 285 296 297 285 248 262 184 164 160 164 159 160 154 155 149 144 144 148 153 159 166 164 163 153 140 141 130 114 105 98 97 91 83 82 81 74 80
302 288 287 282 306 283 276 278 159 272 332 276 274 282 276 271 249 269 183 177 174 167 165 162 163 156 153 155 155 166 164 165 165 170 167 162 146 134 136 124 112 103 104 99 93 90 87 77 84
269 304 306 2 356 301 310 284 224 278 323 282 294 280 280 270 281 211 232 184 177 174 169 168 164 160 162 167 166 168 173 168 160 169 170 164 152 142 152 136 118 117 107 105 97 86 83 75 69
327 31 351 297 342 285 33 271 306 307 315 304 289 276 279 276 250 245 213 233 182 170 172 174 165 166 165 164 161 164 171 164 160 167 168 161 154 146 140 138 132 127 111 108 95 89 74 71 67
7 305 295 317 216 263 115 292 280 295 288 284 266 271 272 284 284 243 202 203 180 170 172 175 169 163 167 165 159 155 158 158 157 159 162 161 153 145 139 142 138 128 108 95 103 61 98 67 65
283 296 269 275 279 276 286 273 289 284 280 275 271 249 254 263 269 243 220 201 175 171 179 169 165 168 158 153 129 120 133 142 151 156 158 157 156 145 136 135 140 131 105 88 79 96 53 84 105
278 265 271 274 276 290 266 284 287 285 275 270 264 226 241 248 262 239 231 189 183 170 165 167 166 172 152 147 144 146 162 139 128 151 156 152 158 149 143 134 137 131 116 120 128 96 79 40 39
279 283 285 286 289 301 299 293 289 278 268 258 253 253 224 239 247 255 215 192 186 176 173 178 173 168 170 158 156 139 133 113 118 140 154 156 159 159 146 139 137 129 112 96 84 107 110 76 19
269 236 288 285 326 262 327 290 318 287 274 284 257 254 250 220 235 236 196 196 191 176 178 178 177 169 171 156 125 106 91 81 92 123 122 150 160 162 149 147 133 132 120 118 94 109 116 129 33
289 317 304 310 326 318 61 295 303 318 322 309 290 287 275 228 221 223 189 190 199 184 173 172 176 162 157 162 158 154 157 157 163 152 136 133 143 152 144 146 134 127 125 120 113 93 88 106 116
250 337 279 289 298 309 348 256 271 335 338 326 313 293 303 261 209 216 184 188 198 171 170 167 164 168 161 170 168 144 134 116 126 112 131 122 114 128 145 134 129 124 121 108 109 103 81 59 108
300 305 337 172 217 271 230 176 286 297 307 309 309 322 314 328 228 215 196 179 183 162 161 162 164 170 165 153 171 152 142 137 137 140 118 113 110 126 125 122 130 129 110 114 117 83 83 85 80
336 15 342 355 358 235 157 206 252 284 298 271 302 323 325 320 250 177 157 170 149 156 161 163 162 165 161 157 156 162 150 140 150 148 141 137 131 141 139 137 140 122 115 113 93 96 88 77 88
271 100 144 282 290 281 243 235 255 226 297 302 306 302 338 339 286 188 164 163 162 159 159 166 164 157 155 144 154 134 133 114 124 140 135 136 126 124 129 123 115 127 113 115 110 98 92 88 81
224 256 193 260 220 271 260 287 302 5 344 344 348 357 356 350 339 156 141 155 162 164 165 162 160 152 147 141 127 116 136 128 126 107 113 122 116 115 123 123 122 113 103 106 117 98 85 98 82
169 291 270 262 293 302 285 279 246 345 331 333 340 351 355 353 8 111 142 122 127 149 156 151 148 152 155 140 142 134 114 107 115 124 143 145 137 129 139 131 106 98 104 115 97 90 93 92 71
136 257 219 277 231 278 313 269 205 288 306 318 323 341 353 357 356 28 134 126 124 118 142 149 154 143 146 139 145 149 151 130 144 130 152 147 138 130 136 122 129 121 111 99 88 91 105 83 72
183 218 188 255 262 250 180 277 230 258 311 321 324 337 351 3 0 29 54 121 131 136 147 148 146 147 143 136 141 132 124 129 141 135 150 123 118 112 111 120 109 112 100 92 106 95 72 72 56